Retour au catalogue

FENGYUN 1C DEB

ActifPO
NORAD 32110·DEBRIS·🇨🇳 China

Lancé May 10, 1999 depuis Taiyuan Satellite Launch Center

Loading…

Prochains Passages (prochaines 24 heures)

TLE

FraisSource: Space-Track

Époque: Sep 14, 2026, 07:13 UTC

1 32110U 99025CRC 26257.30118104  .00001863  00000-0  72836-3 0  9999
2 32110  99.5461  97.9645 0032356 303.1558 234.6077 14.30687181683260

Suivez FENGYUN 1C DEB en temps réel avec AllMySat

Download on the App Store